Location: Newark
(7.5381°N, 8.4972°W)
Time: 08:38:57
(UTC+00:00)

OTV 5 (USA 277) - Visible Passes

Search period start: 26 March 2019 00:00
Search period end: 05 April 2019 00:00
Orbit: 315 x 320 km, 54.5° (Epoch: 14 March)

Date Brightness Start Highest point End Pass type
(mag) Time Alt. Az. Time Alt. Az. Time Alt. Az.
26 Mar ? 05:22:12 12° S 05:23:58 21° ESE 05:26:05 10° ENE visible
27 Mar ? 05:37:53 41° WSW 05:38:35 62° WNW 05:41:14 10° NNE visible
28 Mar ? 05:53:21 12° NW 05:53:21 12° NW 05:54:31 10° NNW visible
